Location: Brienzwiler
(46.7508°N, 8.1014°E)
Time: 16:55:50
(UTC+00:00)

ATLAS CENTAUR R/B - Pass Details

Date: 05 July 2020
Orbit: 475 x 672 km, 64.7° (Epoch: 13 July)

Event Time Altitude Azimuth Distance (km) Brightness Sun altitude
Rises 20:13:00 0° 330° (NNW) 2,590 6.6 -7.3°
Reaches altitude 10° 20:15:29 10° 344° (NNW) 1,681 4.9 -7.6°
Maximum altitude 20:18:34 24° 40° (NE) 1,035 2.8 -8.0°
Drops below altitude 10° 20:21:36 10° 96° (E) 1,646 3.3 -8.3°
Enters shadow 20:22:16 - 102° (ESE) 1,877 3.5 -8.4°
